THORAD AGENA D DEB, 4657

Orbit data source: Space-Track

THORAD AGENA D DEB, 4657 is space debris in SSO originally from a launch on Wed, 08 Apr 1970 UTC launched from the Air Force Western Test Range (AFWTR). Debris objects in space refer to the collection of defunct objects orbiting the Earth. Examples of debris include non-operational satellites, rocket bodies, and fragments generated from explosions, collisions, or faulty payload assembly.

Loading next visibility...
Identifier
4657, 1970-025AR
Orbit
SSO
Country
Flag of USUS
Related business
Manufacturer
Unknown
Mission
Spacecraft
Bus & Motor
Unknown
Mass
Unknown
Launch date (UTC)
1970-04-08 (56 years ago)
Launch vehicle
Unknown
Launch site
Air Force Western Test Range (AFWTR)
Object type
Payload
Rocket body
Debris
Shape & HBR
Unknown shape, 1.1 m
Radar Cross Section
Large (>1 m²)

Expand to show TLE details & history
Last TLE update: 17 hours ago

TLE from 17 hours ago
0 THORAD AGENA D DEB
1 04657U 70025AR  26255.63698747  .00000300  00000-0  38369-3 0  9991
2 04657 100.0935 138.5662 0014860 197.1697 217.5583 13.72047812806710
Epoch: 2026-09-12T15:17Z
TLE epoch observation values (Epoch: 2026-09-12T15:17:15.717Z)
Latitude
53.49318°
Longitude
-96.23541°
Altitude
1,009.58 km
Speed
7.348 km/s
True Right ascension
08h 18m 53s
True Declination
53° 20' 03"
Sunlit
Object was in daylight at epoch
Visualization orbit readout
Latitude
Unknown
Longitude
Unknown
Altitude
Unknown
Speed
Unknown
Apparent Right ascension
Unknown
Apparent Declination
Unknown
Sunlit
N/A
Visualization observer readout
Local Sidereal Time
00:44:47
Azimuth
Unknown
Elevation
Unknown
Doppler factor
Unknown
Orbital elements
Apogee altitude
1,000.469 km
Perigee altitude
978.573 km
Semi-major axis
7,367.658 km
Eccentricity
0.00149
Inclination
100.0935°
RAAN
138.5662°
Arg. of periapsis
197.1697°
True anomaly
217.45465°
Mean anomaly
217.5583°
Eccentric anomaly
217.50646°
Mean motion
3.43201 °/min
Orbital period
104.89 mins
BSTAR
0.00038369
Loading maneuver chart data...
Computing Atmospheric mass density...

Documentation

Showing up to 5 results
|